Time,TemperatureF,DewpointF,PressureIn,WindDirection,WindDirectionDegrees,WindSpeedMPH,WindSpeedGustMPH,Humidity,HourlyPrecipIn,Conditions,Clouds,dailyrainin,SolarRadiationWatts/m^2,SoftwareType,DateUTC
2013-11-18 04:40:00,70.0,68.0,-100.00,WSW,246,10.0,18.0,94,-99.99,,,-99.99,0.000000,,2013-11-18 09:40:00,
2013-11-18 05:13:00,70.0,68.0,-100.00,WSW,246,10.0,18.0,94,-99.99,,,-99.99,0.000000,,2013-11-18 10:13:00,
2013-11-18 05:23:00,70.0,68.0,-100.00,WSW,246,10.0,18.0,94,-99.99,,,-99.99,0.000000,,2013-11-18 10:23:00,
2013-11-18 05:33:00,70.0,68.0,-100.00,WSW,246,10.0,18.0,94,-99.99,,,-99.99,0.000000,,2013-11-18 10:33:00,
2013-11-18 05:40:00,70.0,68.0,-100.00,WSW,245,9.0,16.0,94,0.00,,,-99.99,0.000000,,2013-11-18 10:40:00,
2013-11-18 06:12:00,70.0,68.0,-100.00,WSW,245,9.0,16.0,94,0.00,,,-99.99,0.000000,,2013-11-18 11:12:00,
2013-11-18 06:22:00,70.0,68.0,-100.00,WSW,245,9.0,16.0,94,0.00,,,-99.99,0.000000,,2013-11-18 11:22:00,
2013-11-18 06:32:00,70.0,68.0,-100.00,WSW,245,9.0,16.0,94,0.00,,,-99.99,0.000000,,2013-11-18 11:32:00,
2013-11-18 06:40:00,70.0,68.0,-100.00,WSW,253,7.0,14.0,93,0.00,,,-99.99,0.000000,,2013-11-18 11:40:00,
2013-11-18 07:12:00,70.0,68.0,-100.00,WSW,253,7.0,14.0,93,0.00,,,-99.99,0.000000,,2013-11-18 12:12:00,
2013-11-18 07:22:00,70.0,68.0,-100.00,WSW,253,7.0,14.0,93,0.00,,,-99.99,0.000000,,2013-11-18 12:22:00,
2013-11-18 07:32:00,70.0,68.0,-100.00,WSW,253,7.0,14.0,93,0.00,,,-99.99,0.000000,,2013-11-18 12:32:00,
2013-11-18 07:40:00,70.0,68.0,-100.00,WSW,257,3.0,10.0,94,0.00,,,-99.99,6.000000,,2013-11-18 12:40:00,
2013-11-18 08:11:00,70.0,68.0,-100.00,WSW,257,3.0,10.0,94,0.00,,,-99.99,6.000000,,2013-11-18 13:11:00,
2013-11-18 08:22:00,70.0,68.0,-100.00,WSW,257,3.0,10.0,94,0.00,,,-99.99,6.000000,,2013-11-18 13:22:00,
2013-11-18 08:32:00,70.0,68.0,-100.00,WSW,257,3.0,10.0,94,0.00,,,-99.99,6.000000,,2013-11-18 13:32:00,
2013-11-18 08:40:00,72.0,68.0,-100.00,WSW,258,8.0,12.0,88,0.00,,,-99.99,118.000000,,2013-11-18 13:40:00,
2013-11-18 09:11:00,72.0,68.0,-100.00,WSW,258,8.0,12.0,88,0.00,,,-99.99,118.000000,,2013-11-18 14:11:00,
2013-11-18 09:22:00,72.0,68.0,-100.00,WSW,258,8.0,12.0,88,0.00,,,-99.99,118.000000,,2013-11-18 14:22:00,
2013-11-18 09:32:00,72.0,68.0,-100.00,WSW,258,8.0,12.0,88,0.00,,,-99.99,118.000000,,2013-11-18 14:32:00,
2013-11-18 09:40:00,72.0,68.0,-100.00,WSW,257,7.0,15.0,88,0.00,,,-99.99,184.000000,,2013-11-18 14:40:00,
2013-11-18 10:11:00,72.0,68.0,-100.00,WSW,257,7.0,15.0,88,0.00,,,-99.99,184.000000,,2013-11-18 15:11:00,
2013-11-18 10:22:00,72.0,68.0,-100.00,WSW,257,7.0,15.0,88,0.00,,,-99.99,184.000000,,2013-11-18 15:22:00,
2013-11-18 10:33:00,72.0,68.0,-100.00,WSW,257,7.0,15.0,88,0.00,,,-99.99,184.000000,,2013-11-18 15:33:00,
2013-11-18 10:40:00,72.0,67.0,-100.00,NNW,335,1.0,12.0,85,0.00,,,-99.99,124.000000,,2013-11-18 15:40:00,
2013-11-18 11:13:00,72.0,67.0,-100.00,NNW,335,1.0,12.0,85,0.00,,,-99.99,124.000000,,2013-11-18 16:13:00,
2013-11-18 11:23:00,72.0,67.0,-100.00,NNW,335,1.0,12.0,85,0.00,,,-99.99,124.000000,,2013-11-18 16:23:00,
2013-11-18 11:33:00,72.0,67.0,-100.00,NNW,335,1.0,12.0,85,0.00,,,-99.99,124.000000,,2013-11-18 16:33:00,
2013-11-18 11:40:00,75.0,66.0,-100.00,North,11,4.0,8.0,74,0.00,,,-99.99,281.000000,,2013-11-18 16:40:00,
2013-11-18 12:12:00,75.0,66.0,-100.00,North,11,4.0,8.0,74,0.00,,,-99.99,281.000000,,2013-11-18 17:12:00,
2013-11-18 12:22:00,75.0,66.0,-100.00,North,11,4.0,8.0,74,0.00,,,-99.99,281.000000,,2013-11-18 17:22:00,
2013-11-18 12:33:00,75.0,66.0,-100.00,North,11,4.0,8.0,74,0.00,,,-99.99,281.000000,,2013-11-18 17:33:00,
2013-11-18 12:40:00,80.0,64.0,-100.00,WNW,285,7.0,11.0,58,0.00,,,-99.99,445.000000,,2013-11-18 17:40:00,
2013-11-18 13:12:00,80.0,64.0,-100.00,WNW,285,7.0,11.0,58,0.00,,,-99.99,445.000000,,2013-11-18 18:12:00,
2013-11-18 13:23:00,80.0,64.0,-100.00,WNW,285,7.0,11.0,58,0.00,,,-99.99,445.000000,,2013-11-18 18:23:00,
2013-11-18 13:32:00,80.0,64.0,-100.00,WNW,285,7.0,11.0,58,0.00,,,-99.99,445.000000,,2013-11-18 18:32:00,
2013-11-18 13:40:00,81.0,58.0,-100.00,West,272,7.0,12.0,45,0.00,,,-99.99,563.000000,,2013-11-18 18:40:00,
2013-11-18 14:11:00,81.0,58.0,-100.00,West,272,7.0,12.0,45,0.00,,,-99.99,563.000000,,2013-11-18 19:11:00,
2013-11-18 14:22:00,81.0,58.0,-100.00,West,272,7.0,12.0,45,0.00,,,-99.99,563.000000,,2013-11-18 19:22:00,
2013-11-18 14:32:00,81.0,58.0,-100.00,West,272,7.0,12.0,45,0.00,,,-99.99,563.000000,,2013-11-18 19:32:00,
2013-11-18 14:40:00,81.0,55.0,-100.00,NW,314,9.0,16.0,41,0.00,,,-99.99,465.000000,,2013-11-18 19:40:00,
2013-11-18 15:11:00,81.0,55.0,-100.00,NW,314,9.0,16.0,41,0.00,,,-99.99,465.000000,,2013-11-18 20:11:00,
2013-11-18 15:22:00,81.0,55.0,-100.00,NW,314,9.0,16.0,41,0.00,,,-99.99,465.000000,,2013-11-18 20:22:00,
2013-11-18 15:32:00,81.0,55.0,-100.00,NW,314,9.0,16.0,41,0.00,,,-99.99,465.000000,,2013-11-18 20:32:00,
2013-11-18 15:40:00,81.0,55.0,-100.00,NW,316,7.0,14.0,41,0.00,,,-99.99,324.000000,,2013-11-18 20:40:00,
2013-11-18 16:12:00,81.0,55.0,-100.00,NW,316,7.0,14.0,41,0.00,,,-99.99,324.000000,,2013-11-18 21:12:00,
2013-11-18 16:22:00,81.0,55.0,-100.00,NW,316,7.0,14.0,41,0.00,,,-99.99,324.000000,,2013-11-18 21:22:00,
2013-11-18 16:33:00,81.0,55.0,-100.00,NW,316,7.0,14.0,41,0.00,,,-99.99,324.000000,,2013-11-18 21:33:00,
2013-11-18 16:40:00,77.0,55.0,-100.00,NNW,348,6.0,12.0,47,0.00,,,-99.99,110.000000,,2013-11-18 21:40:00,
2013-11-18 17:13:00,77.0,55.0,-100.00,NNW,348,6.0,12.0,47,0.00,,,-99.99,110.000000,,2013-11-18 22:13:00,
2013-11-18 17:23:00,77.0,55.0,-100.00,NNW,348,6.0,12.0,47,0.00,,,-99.99,110.000000,,2013-11-18 22:23:00,
2013-11-18 17:33:00,77.0,55.0,-100.00,NNW,348,6.0,12.0,47,0.00,,,-99.99,110.000000,,2013-11-18 22:33:00,
2013-11-18 17:40:00,70.0,57.0,-100.00,NNW,336,0.0,11.0,63,0.00,,,-99.99,16.000000,,2013-11-18 22:40:00,
2013-11-18 18:12:00,70.0,57.0,-100.00,NNW,336,0.0,11.0,63,0.00,,,-99.99,16.000000,,2013-11-18 23:12:00,
2013-11-18 18:22:00,70.0,57.0,-100.00,NNW,336,0.0,11.0,63,0.00,,,-99.99,16.000000,,2013-11-18 23:22:00,
2013-11-18 18:33:00,70.0,57.0,-100.00,NNW,336,0.0,11.0,63,0.00,,,-99.99,16.000000,,2013-11-18 23:33:00,
2013-11-18 18:40:00,66.0,54.0,-100.00,NW,326,3.0,4.0,65,0.00,,,-99.99,0.000000,,2013-11-18 23:40:00,
2013-11-18 19:11:00,66.0,54.0,-100.00,NW,326,3.0,4.0,65,0.00,,,-99.99,0.000000,,2013-11-19 00:11:00,
2013-11-18 19:22:00,66.0,54.0,-100.00,NW,326,3.0,4.0,65,0.00,,,-99.99,0.000000,,2013-11-19 00:22:00,
2013-11-18 19:32:00,66.0,54.0,-100.00,NW,326,3.0,4.0,65,0.00,,,-99.99,0.000000,,2013-11-19 00:32:00,
2013-11-18 19:40:00,67.0,49.0,-100.00,North,4,6.0,9.0,53,0.00,,,-99.99,0.000000,,2013-11-19 00:40:00,
2013-11-18 20:11:00,67.0,49.0,-100.00,North,4,6.0,9.0,53,0.00,,,-99.99,0.000000,,2013-11-19 01:11:00,
2013-11-18 20:22:00,67.0,49.0,-100.00,North,4,6.0,9.0,53,0.00,,,-99.99,0.000000,,2013-11-19 01:22:00,
2013-11-18 20:32:00,67.0,49.0,-100.00,North,4,6.0,9.0,53,0.00,,,-99.99,0.000000,,2013-11-19 01:32:00,
2013-11-18 20:40:00,65.0,46.0,-100.00,North,3,4.0,11.0,51,0.00,,,-99.99,0.000000,,2013-11-19 01:40:00,
2013-11-18 21:12:00,65.0,46.0,-100.00,North,3,4.0,11.0,51,0.00,,,-99.99,0.000000,,2013-11-19 02:12:00,
2013-11-18 21:22:00,65.0,46.0,-100.00,North,3,4.0,11.0,51,0.00,,,-99.99,0.000000,,2013-11-19 02:22:00,
2013-11-18 21:32:00,65.0,46.0,-100.00,North,3,4.0,11.0,51,0.00,,,-99.99,0.000000,,2013-11-19 02:32:00,
2013-11-18 21:40:00,63.0,44.0,-100.00,North,10,6.0,11.0,50,0.00,,,-99.99,0.000000,,2013-11-19 02:40:00,
2013-11-18 22:11:00,63.0,44.0,-100.00,North,10,6.0,11.0,50,0.00,,,-99.99,0.000000,,2013-11-19 03:11:00,
2013-11-18 22:22:00,63.0,44.0,-100.00,North,10,6.0,11.0,50,0.00,,,-99.99,0.000000,,2013-11-19 03:22:00,
2013-11-18 22:33:00,63.0,44.0,-100.00,North,10,6.0,11.0,50,0.00,,,-99.99,0.000000,,2013-11-19 03:33:00,
2013-11-18 22:40:00,62.0,33.0,-100.00,North,9,9.0,19.0,34,0.00,,,-99.99,0.000000,,2013-11-19 03:40:00,
2013-11-18 23:13:00,62.0,33.0,-100.00,North,9,9.0,19.0,34,0.00,,,-99.99,0.000000,,2013-11-19 04:13:00,
2013-11-18 23:24:00,62.0,33.0,-100.00,North,9,9.0,19.0,34,0.00,,,-99.99,0.000000,,2013-11-19 04:24:00,
2013-11-18 23:33:00,62.0,33.0,-100.00,North,9,9.0,19.0,34,0.00,,,-99.99,0.000000,,2013-11-19 04:33:00,
2013-11-18 23:40:00,59.0,31.0,-100.00,North,6,9.0,15.0,35,0.00,,,-99.99,0.000000,,2013-11-19 04:40:00,